Tracking 19575 objects as of 19-Feb-2019
HD Live streaming from Space Station
objects crossing your sky now

GORIZONT 6

Track GORIZONT 6 now!
GORIZONT 6 is classified as:


NORAD ID: 13624
Int'l Code: 1982-103A
Perigee: 35,771.3 km
Apogee: 35,797.0 km
Inclination: 12.7 °
Period: 1,435.6 minutes
Semi major axis: 42155 km
RCS: 3.1622 m2 (large)
Launch date: October 20, 1982
Source: Commonwealth of Independent States (former USSR) (CIS)
Launch site: TYURATAM MISSILE AND SPACE COMPLEX (TTMTR)
aabbcc
Your satellite tracking list
Your tracking list is empty




NASA's NSSDC Master Catalog

Two Line Element Set (TLE):
1 13624U 82103A   19049.50932476  .00000093  00000-0  00000+0 0  9990
2 13624  12.7377 327.1301 0003038 332.6102 224.8439  1.00306026 94107
Source of the keplerian elements: AFSPC